Location: Julian California
(33.0790°N, 116.6010°W)
Time: 05:54:57
(UTC-07:00)

Daily predictions for brighter satellites

Satellite Brightness Start Highest point End
(mag) Time Altitude Azimuth Time Altitude Azimuth Time Altitude Azimuth
ATLAS 3B R/B 3.7 00:31:21 43° NE 00:31:21 43° NE 00:36:21 10° NE
Cosmos 2082 Rocket 4.0 00:41:56 26° NNW 00:41:56 26° NNW 00:44:53 10° N
Cosmos 2333 Rocket 4.4 00:56:06 10° NNE 00:59:50 19° NE 00:59:50 19° NE
Cosmos 2219 Rocket 4.4 01:37:35 10° NNE 01:41:23 18° ENE 01:42:54 17° ENE
SL-16 R/B 3.7 01:44:56 10° NNW 01:47:41 30° NNW 01:47:41 30° NNW
CZ-2C R/B 4.3 01:50:11 10° N 01:53:59 43° N 01:53:59 43° N
CZ-2C R/B 4.0 02:01:44 33° N 02:01:44 33° N 02:04:34 10° N
CZ-2D R/B 4.2 01:55:51 10° NE 01:59:02 18° E 01:59:02 18° E
Cosmos 2322 Rocket 3.3 01:57:50 10° NNW 02:01:27 39° N 02:01:27 39° N
IDEFIX/ARIANE 42P 3.9 01:59:57 10° NNE 02:03:12 35° NE 02:03:12 35° NE
Cosmos 2123 Rocket 4.4 02:11:19 57° N 02:11:19 57° N 02:16:17 10° N
ATLAS 3B R/B 4.3 02:18:33 24° WNW 02:20:09 25° NW 02:26:21 10° N
ADEOS II 3.9 02:22:09 10° NE 02:26:08 22° E 02:26:11 22° E
Cosmos 2360 Rocket 3.1 02:21:25 10° NNW 02:25:00 41° NNW 02:25:00 41° NNW
Cosmos 2233 Rocket 4.4 02:23:38 10° N 02:29:43 56° E 02:29:58 55° E
USA 267 3.3 02:27:16 10° NE 02:33:45 67° NW 02:33:55 67° NW
CENTAUR R/B 3.7 02:30:41 10° NNW 02:39:19 62° ENE 02:48:37 10° SE
FENGYUN 3A 4.1 02:34:40 10° NNE 02:39:15 58° ENE 02:39:15 58° ENE
Cosmos 2333 Rocket 3.6 02:39:05 10° NNW 02:41:48 28° NW 02:41:48 28° NW
ALOS 3.6 02:47:12 10° NE 02:50:58 31° E 02:50:58 31° E
SL-08 R/B 4.5 02:45:04 10° N 02:50:47 72° NW 02:50:47 72° NW
Meteor 2-16 Rocket 4.3 02:53:03 82° NW 02:53:03 82° NW 02:58:58 10° N
Meteor 2-21 Rocket 4.5 02:55:46 66° WNW 02:55:46 66° WNW 03:01:34 10° N
DELTA 2 R/B (1) 4.4 02:53:42 35° NW 02:55:35 48° N 03:01:00 10° E
Cosmos 2346 Rocket 4.3 03:02:52 80° SSW 03:03:14 87° W 03:09:31 10° N
H-2A R/B 3.8 03:00:11 10° N 03:02:02 23° NNW 03:02:02 23° NNW
Cosmos 1953 4.0 03:00:46 10° NNE 03:03:02 29° NE 03:03:02 29° NE
NPP 4.3 02:59:40 10° N 03:04:02 44° NW 03:04:02 44° NW
Meteor 1-15 Rocket 4.4 02:59:54 10° NNW 03:05:01 60° WNW 03:05:01 60° WNW
Envisat 4.0 03:02:29 10° NNE 03:07:11 38° E 03:08:08 35° SE
Cosmos 1447 Rocket 4.3 03:07:15 74° WSW 03:07:28 75° W 03:13:37 10° N
Milstar 3 3.6 03:10:44 43° S 03:11:48 45° SSE 03:18:31 10° E
Aureole 3 Rocket 4.4 03:17:38 10° NNE 03:21:42 31° ENE 03:22:55 25° ESE
USA 281 3.6 03:17:20 10° N 03:23:30 45° WNW 03:24:40 41° W
Resurs 1-4 Rocket 2.2 03:18:45 10° N 03:23:54 59° WNW 03:23:55 59° WNW
Cosmos 2219 Rocket 2.6 03:20:11 10° NNW 03:24:32 45° WNW 03:24:32 45° WNW
Cosmos 2297 Rocket 2.2 03:24:38 57° S 03:25:43 73° ESE 03:31:22 10° NNE
Cosmos 1707 Rocket 3.7 03:26:55 65° ESE 03:27:07 66° E 03:31:30 10° NNE
Cosmos 1241 Rocket 4.3 03:24:51 10° NNW 03:31:15 70° WSW 03:33:53 36° S
Cosmos 614 Rocket 3.8 03:34:39 67° SW 03:35:21 81° WNW 03:40:34 10° NNE
Cosmos 1452 Rocket 3.5 03:31:33 10° NNW 03:36:47 79° ENE 03:39:48 26° SSE
Cosmos 2228 Rocket 3.1 03:36:19 65° SSE 03:36:55 78° E 03:41:28 10° N
IUS-18 SRM-1 3.8 03:37:45 40° S 03:37:45 40° S 03:48:33 10° ESE
COSMOS 2428 2.9 03:32:35 10° NNW 03:38:17 70° ENE 03:43:57 10° SSE
Cosmos 1110 Rocket 3.8 03:34:24 10° NNW 03:39:40 77° WSW 03:41:14 46° S
CZ-2D R/B 2.5 03:34:30 10° N 03:39:41 46° WNW 03:40:18 44° W
OAO 3 Copernicus 4.3 03:39:42 56° W 03:40:44 80° N 03:45:47 10° ENE
Cosmos 1174 4.3 03:43:17 40° ESE 03:43:17 40° ESE 03:46:48 10° NE
NOAA 11 4.1 03:38:20 10° N 03:43:48 77° WNW 03:45:23 48° SSW
H-2A R/B 3.5 03:39:00 10° NNE 03:43:51 34° E 03:48:25 11° SSE
IDEFIX/ARIANE 42P 4.4 03:40:58 10° NNW 03:43:54 16° WNW 03:43:54 16° WNW
Cosmos 1892 3.0 03:45:45 48° NE 03:45:45 48° NE 03:48:12 10° NNE
METEOR-M 4.5 03:41:46 10° NNE 03:47:03 61° ESE 03:49:52 27° S
Cosmos 1891 Rocket 4.4 03:41:56 10° N 03:48:12 73° W 03:51:36 29° S
BREEZE-M DEB (TANK) 2.8 03:47:45 57° S 03:48:18 67° SE 03:50:57 10° ENE
Cosmos 2227 Rocket 2.8 03:47:14 25° S 03:50:18 50° ESE 03:55:43 10° NNE
SL-24 DEB 4.5 03:49:53 10° N 03:54:14 70° WNW 03:55:02 55° SW
Cosmos 921 Rocket 3.3 03:55:23 45° WNW 03:55:24 45° WNW 03:59:22 10° N
Cosmos 1703 3.6 03:59:50 40° NW 03:59:50 40° NW 04:02:35 10° N
Cosmos 1862 Rocket 3.9 04:04:44 41° WSW 04:05:16 43° W 04:09:29 10° N
Tiangong -1.5 04:05:21 43° NW 04:05:39 44° NNW 04:08:42 10° NE
ADEOS II 2.8 04:00:59 10° N 04:05:42 36° WNW 04:07:01 31° WSW
Delta 168 4.1 04:07:57 23° SSE 04:07:57 23° SSE 04:10:53 10° ESE
Cosmos 1072 Rocket 4.4 04:03:13 10° N 04:09:30 70° W 04:14:56 14° S
AQUA 4.0 04:05:55 10° N 04:10:26 50° WNW 04:11:59 35° SW
Cosmos 1733 Rocket 3.2 04:10:23 10° NNW 04:14:40 52° W 04:16:28 31° SSW
H-2A R/B 3.2 04:11:01 10° N 04:14:53 73° WNW 04:16:23 35° SSW
CZ-2C R/B 3.2 04:10:29 10° NNE 04:14:55 45° E 04:19:15 10° S
Cosmos 1461 4.4 04:12:59 15° SSE 04:15:18 27° ESE 04:18:29 10° NE
Cosmos 1302 Rocket 4.0 04:10:21 10° NNW 04:15:34 87° ENE 04:20:47 10° SSE
OAO 2 Rocket 3.4 04:22:33 22° W 04:25:56 79° N 04:31:14 10° ENE
NOSS 3-4 (A) 3.0 04:23:24 24° SW 04:26:38 80° WNW 04:32:13 10° NNE
NOSS 3-4 (C) 3.0 04:23:35 24° SW 04:26:50 81° WNW 04:32:24 10° NNE
ALOS 3.7 04:24:45 10° NNW 04:28:00 20° WNW 04:29:05 18° W
Okean 1-7 3.7 04:27:07 28° WSW 04:28:30 35° W 04:32:23 10° NNW
CENTAUR R/B 4.0 04:22:08 10° NW 04:29:49 32° WSW 04:37:45 10° SSW
Cosmos 2237 Rocket 2.2 04:31:42 10° NNW 04:37:21 87° ENE 04:43:00 10° SSE
Meteor 2-17 Rocket 4.4 04:32:35 10° SSW 04:38:40 73° W 04:44:45 10° N
UNK 3.9 04:34:38 10° SSE 04:39:13 77° ENE 04:43:48 10° N
SL-16 R/B 2.6 04:33:25 10° S 04:39:25 56° WSW 04:45:27 10° NNW
DMSP B5D2-2 4.4 04:36:21 10° S 04:41:16 43° W 04:46:14 10° NNW
DELTA 2 R/B (1) 3.5 04:36:38 10° WNW 04:42:13 76° SSW 04:47:48 10° ESE
Helios 1A Rocket 2.4 04:39:22 10° S 04:42:51 75° WSW 04:46:22 10° NNW
Envisat 4.5 04:42:11 10° NNW 04:45:48 20° WNW 04:48:16 14° WSW
Cosmos 44 Rocket 3.2 04:41:24 10° NNW 04:46:15 77° WSW 04:51:11 10° SSE
NOSS 0 Rocket 4.2 04:40:41 10° NW 04:46:33 45° WSW 04:52:23 10° S
YAOGAN 6 3.9 04:45:07 10° NE 04:47:02 22° E 04:48:58 10° SSE
USA 234 3.3 04:40:44 10° SE 04:47:14 86° NE 04:53:47 10° NW
Cosmos 1703 Rocket 3.9 04:45:17 14° SSW 04:48:57 48° W 04:53:15 10° N
Cosmos 2263 Rocket 2.2 04:47:13 10° SSW 04:52:47 84° ESE 04:58:26 10° NNE
Cosmos 1782 Rocket 4.3 04:50:05 10° N 04:54:19 54° E 04:58:32 10° SSE
Cosmos 2034 Rocket 4.3 04:50:11 10° NNW 04:56:00 46° W 05:01:48 10° SSW
ADEOS Rocket 3.8 04:52:57 10° NNE 04:58:14 46° E 05:03:43 10° S
USA 290 4.2 04:58:49 10° SSE 05:01:35 28° ESE 05:04:20 10° NE
Cosmos 2084 3.4 04:57:49 12° SW 05:01:47 68° WNW 05:05:57 10° NNE
SL-8 R/B 4.1 04:57:22 11° SW 05:01:50 58° SE 05:06:28 10° ENE
Cosmos 1992 Rocket 4.0 04:58:42 10° NNW 05:03:50 63° WSW 05:08:55 10° S
Meteor 1-28 Rocket 4.5 05:02:51 12° SW 05:04:53 18° W 05:07:18 10° NW
IRS-1D 3.9 05:03:00 10° NNE 05:08:19 72° ESE 05:13:36 10° S
SL-16 R/B 3.7 05:03:45 10° N 05:09:05 42° ENE 05:14:23 10° SE
CZ-4 R/B 3.9 05:04:58 10° NNE 05:09:41 84° ESE 05:14:29 10° SSW
Cosmos 2297 Rocket 4.1 05:07:29 10° W 05:10:17 14° NW 05:13:06 10° NNW
Cosmos 1271 Rocket 3.1 05:07:37 10° SSW 05:10:49 35° W 05:14:03 10° N
USA 276 1.9 05:10:10 10° SW 05:13:00 77° SE 05:16:00 10° NE
Cosmos 2219 3.3 05:09:15 10° SSW 05:14:51 69° WNW 05:20:33 10° NNE
Cosmos 1140 Rocket 3.6 05:09:47 10° SSW 05:14:55 61° WNW 05:20:03 10° N
Cosmos 1818 3.7 05:14:32 10° SSW 05:19:57 83° ESE 05:25:25 10° NNE
COSMOS 2428 4.4 05:19:42 10° WNW 05:21:46 12° W 05:23:51 10° WSW
H-2A R/B 3.3 05:18:34 10° NNW 05:22:56 26° WNW 05:27:18 10° WSW
SL-08 RB Rocket 3.6 05:18:48 10° N 05:23:13 85° WNW 05:27:38 10° SSW
Cosmos 2251 Rocket 4.4 05:19:36 10° S 05:24:38 52° ESE 05:29:44 10° NNE
NOSS 2-2 (E) 4.2 05:20:19 10° NNW 05:25:06 78° WSW 05:31:58 10° SSE
Nadezhda 4 Rocket 4.4 05:21:57 10° S 05:27:59 70° E 05:34:03 10° N
